Location: D�derode
(51.8092°N, 10.1065°E)
Time: 06:05:18
(UTC+00:00)

Cosmos 1470 Rocket - Pass Details

Date: 01 December 2020
Orbit: 604 x 633 km, 82.5° (Epoch: 23 January)

Event Time Altitude Azimuth Distance (km) Brightness Sun altitude
Rises 17:05:15 0° 347° (NNW) 2,878 7.0 -16.5°
Reaches altitude 10° 17:07:29 10° 346° (NNW) 1,967 6.1 -16.9°
Maximum altitude 17:11:49 73° 262° (W) 640 3.7 -17.5°
Drops below altitude 10° 17:16:07 10° 179° (S) 1,950 6.2 -18.2°
Sets 17:18:19 0° 177° (S) 2,850 7.1 -18.5°
